weather.gov     
National Weather Service

Terminal Aerodrome Forecast
NWS Homepage
This page is being discontinued on March 12, 2014.
The same data is available at this site. Please update your bookmarks.
Thank you, and we apologize for the inconvenience.
Please send an email to SR-SRH.Webmaster@noaa.gov with any concerns.


Current Version
Previous Version:    01  02  03  04  05  06  07  08  09  10  11  12  13  14  15  16  17  18  19  20  21  
[Printable]
817
FTUS45 KBOI 021120
TAFBOI
TAF
KBOI 021120Z 0212/0312 13006KT P6SM SKC
     FM022000 32007KT P6SM FEW200
     FM030200 VRB05KT P6SM FEW200
     FM030600 30011KT P6SM SCT200=


817
FTUS45 KBOI 021120
TAFBOI
TAF
KBOI 021120Z 0212/0312 13006KT P6SM SKC
     FM022000 32007KT P6SM FEW200
     FM030200 VRB05KT P6SM FEW200
     FM030600 30011KT P6SM SCT200=




U.S. Dept. of Commerce
NOAA National Weather Service
1325 East West Highway
Silver Spring, MD 20910
E-mail: w-nws.webmaster@noaa.gov
Page last modified: May 16, 2007
NATIONAL WEATHER SERVICE: for Safety, for Work, for Fun - FOR LIFE